Weather History for KPMP - February, 2013

Change the Weather History Date:

Tuesday, February 5, 2013

  Actual Average Record
Temperature  
Mean Temperature 65 °F -  
Max Temperature 75 °F 76 °F 86 °F (1975)
Min Temperature 55 °F 57 °F 30 °F (1958)
Growing Degree Days 15 (Base 50)    
Moisture  
Dew Point 58 °F    
Average Humidity 73    
Maximum Humidity 93    
Minimum Humidity 53    
Precipitation  
Precipitation 0.00 in - - ()
Sea Level Pressure  
Sea Level Pressure 30.06 in    
Wind  
Wind Speed 3 mph (SE)    
Max Wind Speed 14 mph    
Max Gust Speed 16 mph    
Visibility 10 miles    
Events      
Averages and records for this station are not official NWS values.
T = Trace of Precipitation, MM = Missing Value Source: NWS Daily Summary

Daily Weather History Graph

Daily Weather History Graph

Search for Another Location

Airport or City:

Trip Planner

Search our weather history database for the weather conditions in past years. The results will help you decide how hot, cold, wet, or windy it might be!

Date:

Astronomy

Feb. 05, 2013 Rise Set
Actual Time 7:02 AM EST 6:06 PM EST
Civil Twilight 6:38 AM EST 6:30 PM EST
Nautical Twilight 6:11 AM EST 6:58 PM EST
Astronomical Twilight 5:43 AM EST 7:25 PM EST
Moon 2:32 AM EST (2/5) 1:33 PM EST (2/5)
Length of Visible Light 11h 51m
Length of Day
11h 04m
Waning Crescent, 27% of the Moon is Illuminated
Feb 5
Waning Crescent
Feb 10
New
Feb 17
First Quarter
Feb 25
Full
Mar 4
Last Quarter

Hourly Weather History & Observations

Time (EST) Temp. Dew Point Humidity Pressure Visibility Wind Dir Wind Speed Gust Speed Precip Events Conditions
12:53 AM 57.9 °F 52.0 °F 81% 30.08 in 10.0 mi Calm Calm - N/A   Clear
1:53 AM 59.0 °F 53.1 °F 81% 30.07 in 10.0 mi Calm Calm - N/A   Partly Cloudy
2:53 AM 59.0 °F 55.0 °F 87% 30.06 in 10.0 mi Calm Calm - N/A   Mostly Cloudy
3:53 AM 57.9 °F 55.0 °F 90% 30.05 in 9.0 mi Calm Calm - N/A   Partly Cloudy
4:53 AM 55.9 °F 54.0 °F 93% 30.05 in 9.0 mi Calm Calm - N/A   Clear
5:53 AM 55.9 °F 53.1 °F 90% 30.06 in 10.0 mi Calm Calm - N/A   Partly Cloudy
6:53 AM 55.9 °F 53.1 °F 90% 30.07 in 10.0 mi Calm Calm - N/A   Clear
7:53 AM 59.0 °F 55.0 °F 87% 30.09 in 9.0 mi Calm Calm - N/A   Clear
8:53 AM 69.1 °F 54.0 °F 58% 30.09 in 10.0 mi Calm Calm - N/A   Clear
9:53 AM 72.0 °F 55.9 °F 57% 30.10 in 10.0 mi SE 5.8 mph - N/A   Clear
10:53 AM 73.9 °F 55.9 °F 53% 30.09 in 10.0 mi SE 11.5 mph - N/A   Clear
11:53 AM 75.0 °F 57.0 °F 53% 30.09 in 10.0 mi SE 8.1 mph 16.1 mph N/A   Partly Cloudy
12:53 PM 75.9 °F 59.0 °F 56% 30.06 in 10.0 mi ESE 11.5 mph - N/A   Scattered Clouds
1:53 PM 75.0 °F 60.1 °F 60% 30.04 in 10.0 mi SSE 9.2 mph - N/A   Overcast
2:53 PM 75.9 °F 59.0 °F 56% 30.03 in 10.0 mi SE 13.8 mph - N/A   Mostly Cloudy
3:53 PM 75.9 °F 61.0 °F 60% 30.02 in 10.0 mi SE 12.7 mph - N/A   Partly Cloudy
4:53 PM 73.9 °F 62.1 °F 66% 30.02 in 10.0 mi SE 12.7 mph - N/A   Scattered Clouds
5:53 PM 73.0 °F 61.0 °F 66% 30.02 in 10.0 mi SE 8.1 mph - N/A   Mostly Cloudy
6:53 PM 72.0 °F 62.1 °F 71% 30.03 in 10.0 mi SSE 6.9 mph - N/A   Clear
7:53 PM 71.1 °F 62.1 °F 73% 30.04 in 10.0 mi SSE 4.6 mph - N/A   Clear
8:53 PM 70.0 °F 61.0 °F 73% 30.05 in 10.0 mi South 3.5 mph - N/A   Clear
9:53 PM 68.0 °F 62.1 °F 81% 30.06 in 10.0 mi Calm Calm - N/A   Clear
10:53 PM 64.9 °F 61.0 °F 87% 30.07 in 10.0 mi Calm Calm - N/A   Clear
11:53 PM 64.0 °F 60.1 °F 87% 30.06 in 10.0 mi Calm Calm - N/A   Clear